Weather in Taian

China     36°09′34″N   117°06′44″E
temp.,
°C
wind,
m/s
gust,
m/s
humid.,
%
clouds,
%
prec.,
mm/h
press.,
hPa
HPBL,
m
4 march, thu
thu423:00+5sse49671 0.0 1020264
02:00+4sse34760 0.0 1019119
05:00+3sse34800 0.0 101885
08:00+5sse46780 0.0 1018213
11:00+10sse56590 0.0 1019498
14:00+15s45480 0.0 1016808
17:00+14s46530 0.0 1017866
20:00+11sse236818 0.0 101744
5 march, fri
fri523:00+9sse347089 0.0 101980
02:00+8sse337595 0.0 101878
05:00+8sse3382100 0.0 101869
08:00+9sse3577100 0.0 1018192
11:00+13s4658100 0.0 1019582
14:00+16s4546100 0.0 1019884
17:00+16s1144100 0.0 1021543
20:00+7ene5669100 0.0 1026232
6 march, sat
sat623:00+3ene4569100 0.0 1031270
02:00+2ne3473100 0.0 1032291
05:00−1ne4567100 0.0 1034313
08:00−2ne4558100 0.0 1036460
11:000nne3347100 0.0 1037533
14:00+3ne3438100 0.0 1034696
17:00+3ne3339100 0.0 1033496
20:00+1ene224997 0.0 1034122
7 march, sun
sun723:000ene125187 0.0 103597
02:000n115191 0.0 103458
05:00−1sse005499 0.0 103222
08:00+1sse114799 0.0 1032157
11:00+6ssw113871 0.0 1032623
14:00+9sw213772 0.0 1030906
17:00+9sw214014 0.0 1029775
20:00+6s115257 0.0 103022
8 march, mon
mon823:00+5ese1155100 0.0 103122
02:00+4sse1157100 0.0 103022
05:00+4se1160100 0.0 102922
08:00+5ese1257100 0.0 103089
11:00+9s2249100 0.0 1030603
14:00+11s2246100 0.0 10271038
17:00+11ssw2246100 0.0 10261140
20:00+8ssw1260100 0.0 102722